Location: Newark
(44.2833°N, 6.3178°E)
Time: 08:09:32
(UTC+00:00)

ISS - Visible Passes

Search period start: 16 September 2019 00:00
Search period end: 26 September 2019 00:00
Orbit: 411 x 421 km, 51.6° (Epoch: 16 September)

Date Brightness Start Highest point End Pass type
(mag) Time Alt. Az. Time Alt. Az. Time Alt. Az.
16 Sep -1.5 04:20:23 11° SW 04:20:23 11° SW 04:20:57 10° SSW visible
18 Sep -1.9 19:23:38 10° SSW 19:24:55 20° SSW 19:24:55 20° SSW visible
19 Sep -2.4 18:35:45 10° S 18:38:21 22° SE 18:39:17 19° ESE visible
19 Sep -1.0 20:11:35 10° WSW 20:12:14 15° WSW 20:12:14 15° WSW visible
20 Sep -3.9 19:23:02 10° WSW 19:26:19 88° W 19:26:19 88° W visible
21 Sep -3.7 18:34:38 10° SW 18:37:53 55° SE 18:40:12 17° ENE visible
21 Sep -1.1 20:11:43 10° W 20:13:07 20° WNW 20:13:07 20° WNW visible
22 Sep -2.7 19:22:58 10° W 19:26:09 42° NNW 19:26:50 37° NNE visible
23 Sep -3.4 18:34:17 10° WSW 18:37:34 61° NNW 18:40:23 13° NE visible
23 Sep -0.9 20:11:59 10° WNW 20:13:18 18° NW 20:13:18 18° NW visible
24 Sep -2.1 19:23:09 10° WNW 19:26:03 27° NNW 19:26:45 25° N visible
25 Sep -2.3 18:34:19 10° W 18:37:22 33° NNW 18:40:07 12° NE visible
25 Sep -0.7 20:12:04 10° NW 20:13:01 15° NW 20:13:01 15° NW visible
